Location: London
(51.5166°N, 0.1046°W)
Time: 04:04:47
(UTC+01:00)

ISS - Visible Passes

Search period start: 24 May 2015 00:00
Search period end: 03 June 2015 00:00
Orbit: 399 x 404 km, 51.6° (Epoch: 23 May)

Date Brightness Start Highest point End Pass type
(mag) Time Alt. Az. Time Alt. Az. Time Alt. Az.
24 May -2.7 02:18:56 36° S 02:19:16 37° SSE 02:22:20 10° E visible
24 May -3.3 03:52:15 10° W 03:55:32 89° SSE 03:58:49 10° E visible
25 May -1.6 01:27:21 20° ESE 01:27:21 20° ESE 01:28:57 10° E visible
25 May -3.4 02:59:55 17° WSW 03:02:20 76° SSE 03:05:36 10° E visible
26 May -3.3 02:08:14 40° SW 02:09:07 58° SSE 02:12:21 10° E visible
26 May -3.3 03:42:13 10° W 03:45:31 85° N 03:48:47 10° E visible
27 May -2.6 01:16:29 37° SE 01:16:29 37° SE 01:19:02 10° E visible
27 May -3.4 02:49:02 10° W 02:52:13 89° NNW 02:55:31 10° E visible
28 May -1.3 00:24:36 17° E 00:24:36 17° E 00:25:39 10° E visible
28 May -3.5 01:57:08 24° WSW 01:58:57 80° S 02:02:14 10° E visible
28 May -3.4 03:32:06 10° W 03:35:23 88° SSW 03:38:40 10° E visible
29 May -3.4 01:05:01 48° SW 01:05:41 62° SSE 01:08:55 10° E visible
29 May -3.4 02:38:48 10° W 02:42:04 86° N 02:45:21 10° E visible
30 May -3.1 00:12:26 44° SSE 00:12:26 44° SSE 00:15:34 10° E visible
30 May -3.4 01:45:28 10° W 01:48:44 87° N 01:52:01 10° E visible
30 May -3.4 03:21:54 10° W 03:25:10 70° SSW 03:28:24 10° ESE visible
30 May -2.6 23:17:18 17° SSW 23:19:12 30° SSE 23:22:08 10° E visible
31 May -3.5 00:52:08 10° WSW 00:55:23 83° S 00:58:40 10° E visible
31 May -3.4 02:28:33 10° W 02:31:49 85° S 02:35:06 10° ESE visible
31 May -2.0 22:23:35 10° SSW 22:26:02 20° SE 22:28:31 10° E visible
31 May -3.5 23:58:49 10° WSW 00:02:03 66° SSE 00:05:18 10° E visible
01 Jun -3.4 01:35:11 10° W 01:38:27 86° N 01:41:44 10° E visible
01 Jun -3.1 03:11:37 10° W 03:14:46 47° SSW 03:17:56 10° SE visible
01 Jun -3.2 23:05:35 10° SW 23:08:44 48° SSE 23:11:54 10° E visible
02 Jun -3.4 00:41:47 10° W 00:45:04 86° N 00:48:20 10° E visible
02 Jun -3.4 02:18:12 10° W 02:21:27 65° SSW 02:24:42 10° ESE visible
02 Jun -1.9 03:55:01 10° W 03:57:28 20° SW 03:59:54 10° SSE visible
02 Jun -2.7 22:12:29 10° SW 22:15:26 33° SSE 22:18:25 10° E visible
02 Jun -3.5 23:48:23 10° W 23:51:39 86° SSE 23:54:55 10° E visible
